Powrót do katalogu

THORAD DELTA 1 DEB

AktywnySSO
NORAD 8184·DEBRIS·🇺🇸 United States

Wystrzelony Nov 15, 1974 z Vandenberg Space Force Base

Loading…

Następne Przeloty (najbliższe 24 godziny)

TLE

ŚwieżeSource: Space-Track

Epoka: Sep 14, 2026, 07:38 UTC

1 08184U 74089BA  26257.31810396 -.00000032  00000-0  75202-4 0  9998
2 08184 101.5523 214.9206 0063418 301.3616 221.0054 12.47613896360028

Śledź THORAD DELTA 1 DEB w czasie rzeczywistym z AllMySat

Download on the App Store